#timestamp,LO_Frequency,Hit,StdDev 
1636311615.2,286047000.0,N
1636311635.0,286047000.0,N
1636311636.0,286047000.0,N
1636311655.8,286047000.3,N
1636311675.6,286047000.3,N
1636311695.5,286046999.8,N
1636311715.3,286047000.5,N
1636311735.1,286047000.4,N
1636311755.9,286047000.7,N
1636311775.7,286046998.9,N
1636311795.6,286046999.5,N
1636311815.4,286046998.8,N
1636311835.2,286046999.3,N
1636311855.1,286046999.0,N
1636311856.0,286046999.0,N
1636311875.8,286047000.9,N
1636311895.6,286046998.5,N
1636311915.5,286047001.1,N
1636311935.3,286046998.9,N
1636311955.2,286046998.3,N
1636311975.9,286046996.6,N
1636311995.7,286046998.3,N
1636312015.6,286046998.8,N
1636312035.4,286047000.6,N
1636312055.2,286046998.6,N
1636312075.1,286047001.1,N
1636312076.0,286047001.1,N
1636312095.8,286046998.5,N
1636312115.6,286046998.9,N
1636312135.5,286046999.4,N
1636312155.3,286046999.3,N
1636312175.2,286046999.0,N
1636312195.9,286046999.4,N
1636312215.7,286046996.8,Y
1636312235.6,286046999.0,P
1636312255.4,286046998.3,P
1636312275.3,286047000.9,N
1636312295.1,286047000.8,N
1636312296.0,286047000.8,N
1636312315.8,286046998.6,N
1636312335.7,286046999.5,N
1636312355.5,286046999.2,N
1636312375.3,286046999.0,N
1636312395.2,286046999.5,N
1636312415.0,286047001.1,N
1636312415.9,286047001.1,N
1636312435.8,286046998.5,N
1636312455.6,286046999.1,N
1636312475.4,286046998.7,N
1636312495.3,286047001.1,N
1636312515.1,286046999.6,N
1636312535.9,286046999.5,N
1636312555.7,286046999.5,N
1636312575.5,286046997.4,N
1636312595.4,286046998.8,N
1636312615.2,286046996.6,Y
1636312635.0,286046999.6,P
1636312635.9,286046999.6,P
1636312655.8,286046999.1,P
1636312675.6,286046999.1,Y
1636312695.5,286047001.1,P
1636312715.3,286046999.0,N
1636312735.1,286046999.3,N
1636312755.9,286046999.0,N
1636312775.7,286046998.7,N
1636312795.5,286047001.1,N
1636312815.4,286046999.9,N
1636312835.2,286047001.2,N
1636312855.1,286046998.2,N
1636312856.0,286046998.2,N
1636312875.8,286046998.5,N
1636312895.6,286046998.7,N
1636312915.5,286047000.7,N
1636312935.3,286046999.0,N
1636312955.1,286046999.2,N
1636312975.9,286046999.0,N
1636312995.7,286046998.8,N
1636313015.6,286046999.4,N
1636313035.4,286047001.1,N
1636313055.2,286046999.5,N
1636313075.1,286046996.6,Y
1636313076.0,286046996.6,P
1636313095.8,286046999.4,N
1636313115.7,286046999.0,N
1636313135.5,286046998.3,N
1636313155.3,286046999.1,N
1636313175.2,286046996.5,Y
1636313195.0,286046998.2,P
1636313195.9,286046998.2,P
1636313215.7,286047002.7,P
1636313235.6,286047002.8,N
1636313255.4,286047000.0,N
1636313275.3,286047000.4,N
1636313295.1,286046998.5,N
1636313296.0,286046998.5,N
1636313315.8,286046998.4,N
1636313335.7,286046999.9,N
1636313355.5,286047000.3,N
1636313375.4,286047002.4,N
1636313395.2,286047002.3,N
1636313415.0,286047002.5,N
1636313415.9,286047002.5,N
1636313435.8,286047002.1,N
1636313455.6,286047002.8,N
1636313475.4,286046999.8,N
1636313495.3,286047002.8,N
1636313515.1,286046999.8,N
1636313535.9,286046999.9,N
1636313555.7,286046998.3,N
1636313575.5,286047001.1,N
1636313595.4,286046998.2,N
1636313615.2,286046998.2,N
1636313635.0,286046999.0,N
1636313636.0,286046999.0,N
1636313655.8,286046999.2,N
1636313675.6,286046997.2,N
1636313695.5,286046997.4,N
1636313715.3,286046994.9,N
1636313735.1,286046997.6,N
1636313755.9,286046995.3,N
1636313775.7,286046995.5,N
1636313795.6,286046995.0,N
1636313815.4,286046995.4,N
1636313835.2,286046996.0,N
1636313855.1,286046995.6,N
1636313856.0,286046995.6,N
1636313875.8,286046995.7,N
1636313895.6,286046995.5,N
1636313915.5,286046993.7,N
1636313935.3,286046993.3,N
1636313955.2,286046996.3,N
1636313975.9,286046995.9,N
1636313995.7,286046996.2,N
1636314015.6,286046995.5,N
1636314035.4,286046996.0,N
1636314055.2,286046995.7,N
1636314075.1,286046996.0,N
1636314076.0,286046996.0,N
1636314095.8,286046997.6,N
1636314115.7,286046997.8,N
1636314135.5,286046995.1,Y
1636314155.3,286047000.6,P
1636314175.2,286047000.1,N
1636314195.0,286047002.2,N
1636314195.9,286047002.2,N
1636314215.7,286047000.9,N
1636314235.6,286047000.1,N
1636314255.4,286047000.5,N
1636314275.3,286046999.9,N
1636314295.1,286046999.9,N
1636314296.0,286046999.9,N
1636314315.8,286047000.3,N
1636314335.7,286047000.7,N
1636314355.5,286047000.4,N
1636314375.4,286047000.7,N
1636314395.2,286047000.5,N
1636314415.0,286047000.7,N
1636314415.9,286047000.7,N
1636314435.8,286047000.4,N
1636314455.6,286046999.9,N
1636314475.4,286047000.2,N
1636314495.3,286047002.8,N
1636314515.1,286047001.7,N
1636314535.9,286047001.5,N
1636314555.7,286047005.9,Y
1636314575.5,286047003.5,P
1636314595.4,286047003.5,N
1636314615.2,286047001.8,N
1636314635.0,286047001.7,N
1636314636.0,286047001.7,N
1636314655.8,286047002.3,N
1636314675.6,286047001.5,N
1636314695.5,286047001.4,N
1636314715.3,286047002.7,N
1636314735.1,286047002.3,N
1636314755.9,286046999.9,N
1636314775.7,286047000.3,N
1636314795.6,286046999.7,N
1636314815.4,286047002.3,N
1636314835.2,286047002.3,N
1636314855.1,286047000.0,N
1636314856.0,286047000.0,N
1636314875.8,286047002.8,N
1636314895.7,286046999.7,N
1636314915.5,286047000.9,N
1636314935.3,286046999.9,N
1636314955.2,286047002.3,N
1636314975.9,286047002.2,N
1636314995.7,286047002.5,N
1636315015.6,286047000.4,N
1636315035.4,286047000.4,N
1636315055.3,286047001.6,N
1636315075.1,286047001.7,N
1636315076.0,286047001.7,N
1636315095.8,286047001.3,N
1636315115.7,286047002.3,N
1636315135.5,286047002.7,N
1636315155.3,286047000.4,N
1636315175.2,286047002.7,N
1636315195.0,286046999.8,N
1636315195.9,286046999.8,N
